SCP
0 -0 -0 0 0 0 0 0 0 -0 0 0 0 0 0 0 0 0 0 0 0 -0 -0 -0 -0 -0 -0 -0 -0 -0 -0 0
0 0 0 0 0 0 0 0 0 0 0 0 0 0 0 0 0 0 0 0 -0 -0 -0 -0 -0 -0 -0 -0 -0 -0 -0 -0
0 0 0 0 0 0 0 0 0 0 0 0 0 0 0 0 0 0 0 0 0 -0 -0 -0 -0 -0 -0 -0 -0 -0 -0 -0
0 0 0 0 0 -0 0 0 0 0 -0 0 0 0 0 0 0 0 0 -0 0 0 -0 -0 -0 -0 -0 -0 -0 -0 0 -0
0 0 0 0 0 0 0 0 0 0 0 0 0 0 0 0 0 0 0 0 0 0 0 -0 -0 -0 -0 -0 -0 -0 0 -0
0 0 0 0 0 0 0 0 0 0 0 0 0 0 0 0 0 0 0 0 0 0 0 -0 -0 -0 -0 -0 -0 -0 0 0
0 0 0 0 0 0 0 0 0 0 0 0 0 0 0 0 0 0 0 0 0 0 0 0 0 -0 -0 -0 -0 -0 0 0
0 0 0 0 0 0 0 0 0 0 0 0 0 0 0 0 0 0 0 0 0 0 0 0 0 0 -0 -0 -0 -0 -0 0
0 0 0 0 0 0 0 0 0 0 0 0 0 1 0 0 0 0 0 0 1 0 0 0 0 0 -0 -0 -0 -0 0 0
0 0 0 0 0 0 0 0 0 0 0 1 1 0 1 1 1 1 0 0 1 1 0 0 0 0 -0 -0 -0 -0 -0 0
0 0 0 0 0 0 0 0 0 0 1 1 1 1 0 1 1 1 1 0 1 1 1 1 1 0 0 -0 -0 -0 -0 -0
0 0 0 0 0 0 0 0 0 0 0 0 0 1 1 1 0 0 1 0 0 1 2 1 1 1 0 0 0 -0 -0 -0
0 0 0 0 0 0 0 0 0 0 0 0 0 0 0 0 0 0 0 1 0 1 1 2 1 1 0 0 0 0 0 0
0 0 0 0 0 0 0 0 0 0 0 0 0 0 0 0 0 0 0 0 0 1 1 3 1 1 0 0 0 0 0 1
0 0 0 0 0 0 0 0 0 0 0 0 0 0 0 0 0 0 0 0 0 0 1 4 2 1 1 0 0 1 1 1
0 0 0 0 0 0 0 0 0 0 0 0 0 0 0 0 0 -0 -0 0 0 0 1 2 4 2 1 1 1 1 1 1
0 0 0 0 0 0 0 0 0 0 0 0 0 0 0 0 0 -0 -0 0 0 0 1 1 2 2 2 1 1 1 1 1
0 0 0 0 0 0 0 0 0 0 0 0 0 0 0 0 0 -0 -0 0 0 0 1 1 2 2 2 2 1 1 1 1
0 0 0 0 0 0 0 0 0 0 0 0 0 0 0 0 0 -0 0 0 0 0 0 1 2 3 4 3 2 2 2 1
Wind_Speed_500mb
13 21 20 16 22 15 22 22 18 22 7 22 8 15 19 19 6 11 25 36 43 46 50 51 52 50 51 46 41 39 34 29
3 8 23 21 17 16 20 26 28 16 8 20 6 16 17 23 25 4 18 31 42 45 47 48 50 50 50 49 48 31 35 30
13 20 16 13 21 20 24 18 22 25 16 11 6 12 16 23 31 21 10 23 37 46 47 48 47 49 51 50 46 46 38 31
30 30 14 28 32 31 21 26 22 20 26 2 3 9 11 20 32 30 16 15 27 39 46 49 49 49 51 52 50 46 42 39
25 30 22 26 18 24 23 25 31 29 23 12 7 2 30 31 35 34 29 8 16 30 41 46 48 50 51 53 52 53 49 44
27 32 26 25 27 24 25 21 29 31 26 29 8 22 36 34 32 33 29 16 11 22 32 38 43 49 50 51 49 51 52 45
27 31 32 36 39 40 42 37 35 37 38 29 22 31 33 30 29 30 29 26 15 16 26 35 40 44 48 50 50 51 55 55
29 33 37 40 43 42 43 44 48 44 47 41 47 21 27 28 29 31 31 30 26 19 26 34 41 46 47 52 53 54 55 61
28 17 23 27 32 31 31 35 35 38 39 12 23 22 22 17 27 30 33 34 35 28 25 33 37 43 48 50 51 56 57 59
21 15 27 5 7 11 17 18 15 23 17 18 18 24 12 14 25 31 36 36 35 31 24 27 31 38 44 48 56 59 59 53
17 22 27 32 13 10 15 2 14 17 16 21 29 36 22 18 30 34 39 39 35 35 28 25 31 36 45 49 53 58 59 58
14 19 22 10 9 9 6 16 16 19 22 28 32 19 15 40 39 38 40 41 41 40 32 23 29 36 45 51 51 54 59 66
24 26 20 15 14 7 26 7 26 24 26 29 22 30 45 43 42 39 41 43 41 35 31 20 26 39 46 47 51 49 53 59
11 21 30 16 5 14 27 30 38 40 38 36 38 44 44 41 40 41 40 41 38 33 28 20 20 37 45 45 43 45 52 59
10 10 13 31 37 25 37 48 49 43 45 41 44 46 46 43 38 39 38 35 35 32 29 14 20 31 40 40 41 45 54 59
24 14 24 37 50 50 37 32 41 51 51 49 51 48 47 44 38 37 37 32 35 34 27 20 14 27 33 33 40 47 53 53
33 41 44 42 34 30 43 39 44 43 47 48 46 48 44 44 38 35 36 34 33 34 32 30 12 29 34 35 40 46 46 47
25 46 39 47 52 45 48 45 38 43 46 46 43 45 42 41 33 34 36 34 35 35 34 33 25 35 38 41 43 44 44 43
43 47 55 57 55 53 49 45 47 50 48 48 45 39 42 39 35 36 40 38 35 35 31 23 30 51 38 37 39 40 45 42
Wind_Direction_500mb
220 275 250 180 227 283 288 245 262 271 277 257 115 69 23 32 336 191 190 192 197 195 198 199 195 195 195 208 204 208 203 215
90 243 234 259 338 244 219 265 264 268 268 271 340 11 5 19 22 304 205 196 196 200 200 203 202 201 197 206 206 202 200 210
240 238 282 187 226 226 279 292 288 282 267 78 325 4 357 17 25 7 265 213 202 200 202 203 202 202 201 203 202 210 201 206
273 297 289 274 280 283 252 255 236 281 284 326 47 343 24 15 15 6 331 251 215 203 198 200 201 201 200 201 200 202 205 210
262 232 207 245 233 272 278 282 267 278 274 123 172 318 42 13 0 4 359 297 224 209 201 200 201 200 200 201 206 203 205 205
276 302 319 285 268 253 274 270 271 261 265 270 277 358 355 350 357 355 1 341 254 222 212 205 202 202 200 201 202 199 202 203
278 282 282 276 272 272 271 264 268 279 283 297 309 335 343 350 352 1 358 352 318 251 223 214 206 202 203 201 199 198 202 207
278 273 270 275 271 266 262 266 272 266 264 280 289 307 324 351 357 358 351 344 335 300 240 225 216 208 204 199 198 196 201 206
275 296 290 267 260 259 274 267 272 267 276 322 307 310 324 355 1 354 348 343 335 325 264 236 228 218 207 200 193 197 203 204
269 280 259 10 20 310 286 280 311 310 323 360 307 301 290 11 3 355 349 340 335 323 305 245 230 217 203 199 198 199 201 202
248 247 273 285 265 316 310 60 29 343 340 328 322 301 182 7 357 349 346 341 327 322 303 256 227 211 203 200 200 200 200 203
225 268 282 65 51 346 296 240 24 349 334 329 329 294 89 345 342 337 336 340 327 326 317 270 224 211 204 205 202 200 201 205
248 259 260 52 328 307 248 335 341 338 330 328 320 312 306 314 318 322 327 332 329 325 323 284 227 211 210 209 207 201 200 201
247 274 264 45 244 307 342 319 315 311 307 306 309 308 308 308 312 316 319 325 330 320 321 297 235 211 214 214 207 198 194 194
269 306 310 302 298 303 301 303 302 301 297 291 298 300 303 305 307 308 310 313 321 315 315 313 248 216 217 215 203 192 187 191
297 279 287 295 299 299 298 295 295 291 287 286 284 289 296 301 302 300 301 300 309 316 307 285 251 224 216 211 201 192 193 196
270 273 278 283 288 291 301 294 295 295 284 280 277 279 285 292 298 300 295 295 303 308 299 286 217 223 207 205 195 191 190 188
275 292 302 298 292 290 288 286 292 301 295 284 271 274 280 283 289 297 294 291 292 295 295 288 253 214 199 195 190 184 184 182
293 289 285 287 288 285 276 278 291 294 292 283 277 271 275 275 278 288 293 288 282 291 298 301 296 203 186 178 175 179 182 178
Wind_Speed_850mb
13 21 20 16 22 15 22 22 18 22 7 22 8 15 19 19 6 11 25 36 43 46 50 51 52 50 51 46 41 39 34 29
3 8 23 21 17 16 20 26 28 16 8 20 6 16 17 23 25 4 18 31 42 45 47 48 50 50 50 49 48 31 35 30
13 20 16 13 21 20 24 18 22 25 16 11 6 12 16 23 31 21 10 23 37 46 47 48 47 49 51 50 46 46 38 31
30 30 14 28 32 31 21 26 22 20 26 2 3 9 11 20 32 30 16 15 27 39 46 49 49 49 51 52 50 46 42 39
25 30 22 26 18 24 23 25 31 29 23 12 7 2 30 31 35 34 29 8 16 30 41 46 48 50 51 53 52 53 49 44
27 32 26 25 27 24 25 21 29 31 26 29 8 22 36 34 32 33 29 16 11 22 32 38 43 49 50 51 49 51 52 45
27 31 32 36 39 40 42 37 35 37 38 29 22 31 33 30 29 30 29 26 15 16 26 35 40 44 48 50 50 51 55 55
29 33 37 40 43 42 43 44 48 44 47 41 47 21 27 28 29 31 31 30 26 19 26 34 41 46 47 52 53 54 55 61
28 17 23 27 32 31 31 35 35 38 39 12 23 22 22 17 27 30 33 34 35 28 25 33 37 43 48 50 51 56 57 59
21 15 27 5 7 11 17 18 15 23 17 18 18 24 12 14 25 31 36 36 35 31 24 27 31 38 44 48 56 59 59 53
17 22 27 32 13 10 15 2 14 17 16 21 29 36 22 18 30 34 39 39 35 35 28 25 31 36 45 49 53 58 59 58
14 19 22 10 9 9 6 16 16 19 22 28 32 19 15 40 39 38 40 41 41 40 32 23 29 36 45 51 51 54 59 66
24 26 20 15 14 7 26 7 26 24 26 29 22 30 45 43 42 39 41 43 41 35 31 20 26 39 46 47 51 49 53 59
11 21 30 16 5 14 27 30 38 40 38 36 38 44 44 41 40 41 40 41 38 33 28 20 20 37 45 45 43 45 52 59
10 10 13 31 37 25 37 48 49 43 45 41 44 46 46 43 38 39 38 35 35 32 29 14 20 31 40 40 41 45 54 59
24 14 24 37 50 50 37 32 41 51 51 49 51 48 47 44 38 37 37 32 35 34 27 20 14 27 33 33 40 47 53 53
33 41 44 42 34 30 43 39 44 43 47 48 46 48 44 44 38 35 36 34 33 34 32 30 12 29 34 35 40 46 46 47
25 46 39 47 52 45 48 45 38 43 46 46 43 45 42 41 33 34 36 34 35 35 34 33 25 35 38 41 43 44 44 43
43 47 55 57 55 53 49 45 47 50 48 48 45 39 42 39 35 36 40 38 35 35 31 23 30 51 38 37 39 40 45 42
Wind_Direction_850mb
220 275 250 180 227 283 288 245 262 271 277 257 115 69 23 32 336 191 190 192 197 195 198 199 195 195 195 208 204 208 203 215
90 243 234 259 338 244 219 265 264 268 268 271 340 11 5 19 22 304 205 196 196 200 200 203 202 201 197 206 206 202 200 210
240 238 282 187 226 226 279 292 288 282 267 78 325 4 357 17 25 7 265 213 202 200 202 203 202 202 201 203 202 210 201 206
273 297 289 274 280 283 252 255 236 281 284 326 47 343 24 15 15 6 331 251 215 203 198 200 201 201 200 201 200 202 205 210
262 232 207 245 233 272 278 282 267 278 274 123 172 318 42 13 0 4 359 297 224 209 201 200 201 200 200 201 206 203 205 205
276 302 319 285 268 253 274 270 271 261 265 270 277 358 355 350 357 355 1 341 254 222 212 205 202 202 200 201 202 199 202 203
278 282 282 276 272 272 271 264 268 279 283 297 309 335 343 350 352 1 358 352 318 251 223 214 206 202 203 201 199 198 202 207
278 273 270 275 271 266 262 266 272 266 264 280 289 307 324 351 357 358 351 344 335 300 240 225 216 208 204 199 198 196 201 206
275 296 290 267 260 259 274 267 272 267 276 322 307 310 324 355 1 354 348 343 335 325 264 236 228 218 207 200 193 197 203 204
269 280 259 10 20 310 286 280 311 310 323 360 307 301 290 11 3 355 349 340 335 323 305 245 230 217 203 199 198 199 201 202
248 247 273 285 265 316 310 60 29 343 340 328 322 301 182 7 357 349 346 341 327 322 303 256 227 211 203 200 200 200 200 203
225 268 282 65 51 346 296 240 24 349 334 329 329 294 89 345 342 337 336 340 327 326 317 270 224 211 204 205 202 200 201 205
248 259 260 52 328 307 248 335 341 338 330 328 320 312 306 314 318 322 327 332 329 325 323 284 227 211 210 209 207 201 200 201
247 274 264 45 244 307 342 319 315 311 307 306 309 308 308 308 312 316 319 325 330 320 321 297 235 211 214 214 207 198 194 194
269 306 310 302 298 303 301 303 302 301 297 291 298 300 303 305 307 308 310 313 321 315 315 313 248 216 217 215 203 192 187 191
297 279 287 295 299 299 298 295 295 291 287 286 284 289 296 301 302 300 301 300 309 316 307 285 251 224 216 211 201 192 193 196
270 273 278 283 288 291 301 294 295 295 284 280 277 279 285 292 298 300 295 295 303 308 299 286 217 223 207 205 195 191 190 188
275 292 302 298 292 290 288 286 292 301 295 284 271 274 280 283 289 297 294 291 292 295 295 288 253 214 199 195 190 184 184 182
293 289 285 287 288 285 276 278 291 294 292 283 277 271 275 275 278 288 293 288 282 291 298 301 296 203 186 178 175 179 182 178